Temp
59 58 52 58 61 59 58 55 55 57 58 57 59 60 53 50 49 49 50 51 50 49 49 50 51 52 53 50 50 50 50 51 54 52 50 48 48 51 52 53 53 52 51 49
53 51 61 58 57 56 53 53 53 55 55 55 57 55 56 49 49 50 50 50 49 49 49 49 50 51 52 51 51 52 52 53 56 56 56 55 53 53 52 51 51 51 51 52
54 57 57 54 50 50 52 51 53 53 51 53 51 52 51 44 44 45 47 49 49 50 49 49 49 50 51 50 52 52 53 54 54 53 53 53 54 54 51 50 49 49 50 50
55 56 52 51 51 53 49 53 52 50 49 46 51 46 49 46 43 43 44 46 48 47 47 47 48 48 48 48 49 50 51 52 53 54 54 54 51 48 49 48 48 47 48 49
52 48 49 49 52 53 52 51 50 49 48 45 46 44 53 42 40 42 44 46 48 48 48 47 47 46 47 48 49 50 51 50 52 52 52 50 48 48 50 49 46 46 47 47
52 52 53 53 49 53 50 48 47 47 46 37 46 45 50 44 46 45 46 47 48 47 47 47 47 47 47 47 48 50 49 49 50 50 51 49 48 47 47 47 46 46 46 46
48 48 51 52 47 48 49 47 38 35 34 35 41 39 51 52 47 49 46 47 48 47 46 46 45 45 46 46 46 48 48 46 48 48 49 48 48 48 46 46 46 45 45 44
41 38 47 51 52 47 46 49 40 30 31 38 36 36 48 43 47 47 51 49 48 46 47 46 46 46 45 45 46 47 46 46 47 47 47 47 47 47 46 46 46 45 44 43
40 41 48 49 50 53 45 41 49 33 27 34 43 44 47 40 41 43 46 46 45 46 46 46 45 46 46 45 46 47 46 46 47 46 47 46 47 46 44 44 44 43 43 42
48 40 44 44 49 47 47 51 39 41 30 30 39 40 48 40 42 42 43 44 46 46 45 46 46 45 46 46 47 47 47 46 46 46 46 45 44 44 43 43 41 41 41 40
49 45 39 43 43 45 42 42 42 45 40 35 35 43 53 52 50 44 45 47 47 46 45 46 46 46 46 46 46 46 46 44 44 44 44 43 42 42 42 41 41 40 39 39
50 42 35 40 43 43 48 47 46 40 31 37 36 43 45 47 51 50 47 47 49 48 47 47 47 46 45 45 45 45 45 44 44 44 43 42 41 41 41 40 39 38 37 37
48 39 33 35 41 40 40 43 47 47 38 34 34 42 44 45 46 49 49 47 47 47 47 47 46 45 45 45 44 45 45 44 44 43 42 41 41 40 39 38 37 36 35 35
50 40 39 39 46 47 37 41 42 43 36 39 39 46 42 44 46 47 46 47 47 47 47 46 45 45 45 45 45 45 44 44 43 42 41 40 39 38 37 35 34 33 32 32
46 34 41 44 44 43 43 42 41 40 45 39 44 43 50 48 47 50 51 49 45 45 45 45 44 44 44 43 44 44 44 42 42 40 39 39 36 35 33 32 30 30 29 28
39 34 38 36 41 38 36 41 41 42 45 46 48 46 52 53 52 49 46 45 43 43 44 44 44 43 42 42 42 42 41 40 39 39 37 35 33 30 29 28 26 26 26 26
33 34 31 31 34 31 28 35 39 42 46 45 38 45 44 44 44 46 47 44 43 43 44 43 43 43 42 42 42 41 41 39 36 34 32 30 28 26 25 24 24 23 23 23
33 32 32 26 27 23 35 36 42 41 40 41 39 37 39 43 47 45 45 43 42 43 43 43 43 44 43 44 43 42 37 33 32 29 26 26 24 23 23 22 21 21 21 20
32 33 25 24 24 29 30 31 34 34 35 37 39 36 39 37 41 42 42 42 44 43 43 43 44 45 43 42 40 34 32 31 29 26 25 23 23 20 20 17 19 19 18 17
29 32 33 25 24 24 35 31 35 39 32 36 38 38 34 37 35 45 41 40 40 41 42 41 41 40 38 36 33 31 29 28 27 27 25 23 20 16 15 17 15 16 15 15
26 26 27 26 25 28 34 33 34 27 32 34 36 36 33 35 42 40 39 38 41 40 39 39 37 35 35 31 30 29 28 27 28 25 22 19 18 14 15 14 14 12 12 12
28 26 25 28 25 23 31 30 31 36 31 33 33 34 34 36 37 37 39 38 37 36 36 35 32 31 30 29 30 28 26 26 23 21 19 16 12 14 14 9 10 10 10 9
26 32 30 32 32 31 34 33 38 37 35 34 37 35 37 37 38 38 38 36 35 34 32 31 32 29 27 27 29 26 25 22 19 16 12 11 10 11 10 10 10 12 11 10
27 30 30 30 30 31 34 35 36 37 38 37 36 35 36 37 36 34 33 32 31 31 30 29 27 26 23 22 23 25 20 19 12 12 11 9 9 11 9 12 12 11 11 11
31 30 25 26 29 32 34 35 37 36 35 33 32 33 35 35 31 32 30 31 32 31 28 28 27 27 26 21 21 18 17 13 12 12 11 12 12 9 11 11 13 12 12 12
30 28 28 28 35 37 38 40 39 35 34 34 33 30 31 33 33 32 30 31 30 28 27 25 26 25 23 20 18 14 13 12 12 12 11 13 12 11 11 11 11 14 14 16
MSLP
1018.12 1017.78 1016.73 1016.32 1016.26 1016.52 1016.41 1016.56 1016.45 1016.78 1017.30 1017.62 1017.46 1018.13 1019.68 1021.38 1022.34 1022.88 1023.24 1023.47 1023.80 1024.29 1024.86 1024.99 1025.04 1024.98 1024.80 1024.72 1024.53 1024.41 1024.31 1024.31 1024.13 1024.35 1024.67 1025.17 1025.65 1026.13 1026.22 1026.51 1026.73 1026.84 1027.01 1026.97
1018.43 1017.01 1016.33 1016.88 1017.11 1017.05 1017.13 1016.98 1016.91 1017.29 1017.61 1017.88 1017.59 1017.93 1019.39 1021.11 1021.99 1022.73 1023.18 1023.67 1023.95 1024.40 1024.79 1025.06 1025.13 1025.17 1025.09 1024.99 1024.89 1024.84 1024.79 1024.72 1024.59 1024.71 1024.96 1025.37 1026.13 1026.73 1027.19 1027.61 1027.67 1027.65 1027.59 1027.47
1016.77 1016.59 1016.68 1017.14 1017.59 1017.56 1017.33 1017.22 1017.19 1017.51 1018.03 1018.12 1018.15 1017.62 1018.77 1020.98 1022.27 1023.18 1023.55 1023.90 1024.22 1024.40 1024.87 1025.18 1025.43 1025.53 1025.49 1025.46 1025.37 1025.33 1025.27 1025.21 1025.21 1025.43 1025.62 1026.19 1026.66 1027.10 1027.74 1028.35 1028.64 1028.76 1028.64 1028.57
1017.11 1017.07 1017.19 1017.38 1017.42 1017.46 1017.24 1017.48 1017.80 1018.09 1018.35 1017.80 1018.37 1016.77 1017.81 1019.77 1021.44 1022.71 1023.36 1023.79 1024.08 1024.65 1025.16 1025.51 1025.69 1025.74 1025.90 1026.01 1026.04 1025.96 1026.01 1025.97 1026.08 1026.01 1025.93 1025.97 1026.72 1027.67 1028.54 1029.06 1029.61 1029.67 1029.40 1029.24
1016.44 1017.00 1017.22 1017.21 1017.04 1017.65 1017.51 1017.89 1018.20 1018.40 1018.28 1018.47 1018.31 1018.48 1017.16 1019.33 1020.37 1021.47 1022.52 1023.28 1023.89 1024.63 1025.08 1025.48 1025.89 1026.22 1026.50 1026.50 1026.44 1026.55 1026.64 1026.63 1026.57 1026.56 1026.96 1027.12 1027.63 1028.34 1028.67 1029.27 1029.98 1030.15 1030.33 1030.21
1016.80 1017.26 1017.21 1017.04 1017.63 1017.76 1018.42 1018.68 1019.03 1019.07 1018.92 1017.95 1017.18 1017.80 1016.27 1017.68 1018.00 1019.88 1021.54 1022.49 1023.39 1024.46 1025.28 1025.92 1026.47 1026.77 1026.75 1026.93 1026.86 1026.89 1027.13 1027.38 1027.52 1027.29 1027.63 1027.96 1028.41 1029.02 1029.32 1029.64 1030.12 1030.61 1030.75 1030.63
1016.89 1016.98 1016.97 1017.17 1017.71 1018.41 1018.16 1018.41 1018.76 1019.07 1018.84 1017.30 1017.39 1017.56 1015.42 1016.42 1017.66 1018.57 1019.75 1021.36 1022.72 1024.10 1025.04 1025.75 1026.39 1026.80 1026.97 1027.10 1027.24 1027.38 1027.41 1027.99 1028.34 1028.32 1028.40 1028.65 1028.81 1029.45 1029.94 1030.09 1030.68 1030.80 1031.19 1031.46
1015.85 1016.22 1016.13 1016.40 1016.18 1016.81 1017.44 1017.18 1017.02 1017.36 1017.86 1017.37 1017.84 1016.50 1015.67 1017.01 1017.76 1018.72 1019.72 1021.04 1022.32 1023.64 1024.70 1025.50 1026.23 1026.78 1027.19 1027.43 1027.51 1027.78 1027.77 1028.14 1028.85 1029.11 1028.91 1029.30 1029.47 1029.80 1030.34 1030.90 1030.68 1031.51 1031.91 1031.87
1014.85 1015.28 1015.54 1016.05 1016.23 1016.28 1017.37 1017.25 1016.89 1017.34 1018.55 1017.57 1015.80 1015.60 1016.06 1017.26 1017.96 1018.52 1019.51 1020.93 1021.85 1022.87 1023.86 1024.65 1025.63 1026.33 1026.88 1027.36 1027.55 1027.78 1028.05 1028.58 1029.08 1029.30 1029.61 1029.64 1029.79 1030.28 1030.65 1031.00 1031.31 1031.46 1032.17 1032.22
1013.92 1014.92 1015.81 1016.49 1016.56 1016.78 1016.31 1015.95 1016.89 1016.75 1016.72 1016.11 1014.71 1014.74 1014.34 1015.91 1016.66 1017.92 1018.76 1019.34 1021.12 1022.63 1023.82 1024.61 1025.32 1025.87 1026.56 1026.90 1027.30 1027.71 1028.05 1028.60 1029.11 1029.47 1029.86 1030.06 1030.27 1030.60 1030.93 1031.33 1031.56 1031.90 1032.29 1032.41
1014.15 1014.67 1016.48 1016.70 1016.00 1015.20 1016.22 1015.70 1015.61 1015.33 1015.18 1014.71 1014.01 1012.74 1012.91 1013.71 1014.96 1016.35 1017.43 1018.34 1019.52 1021.09 1022.76 1023.72 1024.45 1025.30 1026.13 1026.65 1026.95 1027.27 1027.87 1028.27 1029.35 1029.74 1030.01 1030.32 1030.64 1031.07 1031.20 1031.44 1032.07 1032.33 1032.56 1032.60
1013.50 1014.36 1015.23 1015.17 1015.30 1015.57 1014.82 1014.43 1014.16 1013.72 1014.81 1014.66 1014.17 1012.02 1012.69 1013.45 1014.36 1015.77 1016.65 1017.62 1018.77 1020.19 1021.49 1023.01 1023.84 1024.44 1025.43 1026.08 1026.48 1027.06 1027.64 1028.25 1028.99 1029.70 1030.18 1030.50 1030.61 1031.00 1031.45 1031.77 1032.04 1032.36 1032.50 1032.79
1012.79 1013.74 1014.76 1014.96 1015.45 1015.52 1014.64 1013.86 1013.23 1013.07 1013.45 1012.68 1013.45 1011.73 1013.04 1013.55 1014.13 1015.09 1016.18 1017.23 1018.19 1019.50 1020.81 1022.23 1023.22 1023.85 1024.66 1025.29 1025.80 1026.56 1027.30 1027.95 1028.56 1029.43 1030.01 1030.51 1030.80 1030.95 1031.46 1031.73 1031.93 1032.23 1032.59 1032.84
1012.36 1012.39 1011.91 1010.86 1010.46 1011.58 1013.18 1012.72 1012.76 1012.66 1012.20 1011.38 1010.62 1011.38 1012.95 1013.26 1013.73 1014.41 1015.45 1016.49 1017.32 1018.63 1019.82 1021.13 1022.46 1022.93 1023.69 1024.48 1025.21 1025.83 1026.54 1027.22 1028.05 1029.03 1029.56 1030.04 1030.77 1031.01 1031.35 1031.79 1032.11 1032.43 1032.85 1032.95
1012.65 1012.55 1012.36 1011.12 1011.21 1011.54 1010.97 1011.17 1011.68 1011.16 1009.82 1010.22 1009.16 1010.39 1011.13 1012.23 1012.87 1013.41 1014.11 1015.49 1016.43 1017.74 1018.84 1019.99 1020.70 1021.74 1022.70 1023.71 1024.61 1025.51 1026.21 1027.08 1027.73 1028.44 1029.29 1029.88 1030.81 1030.99 1031.43 1031.92 1032.32 1032.61 1032.92 1033.24
1013.05 1012.44 1012.79 1011.66 1011.74 1012.11 1011.89 1011.26 1010.85 1010.31 1010.09 1009.81 1009.80 1009.88 1010.74 1011.52 1012.65 1013.57 1014.07 1014.80 1015.73 1016.66 1017.61 1018.46 1019.56 1020.76 1021.78 1023.02 1024.09 1025.05 1025.96 1026.78 1027.72 1028.29 1028.99 1030.12 1030.67 1031.13 1031.58 1032.08 1032.47 1032.79 1032.97 1033.29
1013.96 1013.20 1013.08 1011.67 1012.13 1012.68 1012.35 1009.72 1010.73 1010.59 1010.33 1010.33 1010.59 1009.83 1011.47 1012.25 1012.89 1013.19 1013.85 1014.72 1015.19 1015.96 1016.75 1017.74 1018.49 1019.54 1020.84 1022.09 1023.29 1024.29 1025.37 1026.48 1027.51 1028.15 1029.23 1030.24 1030.84 1031.31 1031.77 1032.25 1032.54 1032.82 1033.05 1033.28
1013.62 1013.73 1013.27 1013.14 1013.46 1012.55 1010.60 1010.93 1010.32 1010.33 1010.61 1011.09 1011.36 1011.59 1011.96 1012.45 1012.79 1013.42 1013.88 1014.52 1015.19 1015.95 1016.68 1017.46 1018.47 1019.47 1020.37 1021.43 1022.70 1023.93 1025.36 1026.41 1027.37 1028.25 1029.51 1030.32 1030.98 1031.38 1031.83 1032.30 1032.67 1032.94 1033.05 1033.21
1013.46 1013.39 1013.21 1013.16 1012.81 1011.92 1011.75 1011.61 1011.30 1011.18 1011.02 1011.29 1011.94 1012.26 1012.80 1013.61 1013.97 1013.89 1014.09 1014.63 1015.25 1015.91 1016.67 1017.42 1018.09 1018.90 1020.08 1021.21 1022.62 1023.97 1025.13 1026.17 1027.14 1028.33 1029.34 1030.19 1030.67 1031.33 1031.89 1032.48 1032.74 1032.94 1033.08 1033.14
1013.81 1013.82 1013.12 1013.19 1012.38 1011.71 1010.99 1011.41 1011.33 1011.39 1011.79 1011.51 1011.90 1012.59 1013.60 1014.18 1014.28 1013.73 1014.26 1015.00 1015.67 1016.26 1016.99 1017.63 1018.54 1019.43 1020.25 1021.32 1022.51 1023.87 1025.10 1026.06 1027.06 1028.04 1028.92 1029.91 1030.67 1031.35 1031.92 1032.39 1032.81 1032.97 1033.03 1032.84
1013.46 1013.45 1012.65 1012.24 1011.86 1011.73 1011.18 1011.58 1011.89 1012.35 1011.79 1011.46 1012.16 1013.08 1014.02 1014.16 1013.75 1014.32 1014.72 1015.46 1015.87 1016.38 1017.29 1018.03 1018.76 1019.36 1020.30 1021.56 1022.65 1024.02 1025.08 1025.80 1026.73 1028.00 1028.96 1029.81 1030.58 1031.30 1031.91 1032.39 1032.64 1032.74 1032.74 1032.68
1012.21 1012.32 1012.22 1012.21 1011.95 1011.96 1011.67 1012.68 1012.33 1011.30 1011.68 1011.87 1012.72 1013.27 1013.93 1013.98 1014.32 1014.80 1015.25 1015.83 1016.59 1017.30 1017.99 1018.63 1019.15 1019.94 1021.02 1021.81 1022.65 1023.90 1024.89 1025.80 1026.96 1027.92 1028.81 1029.81 1030.68 1031.29 1031.79 1032.18 1032.32 1032.42 1032.44 1032.35
1012.32 1011.15 1011.16 1011.42 1011.12 1011.01 1011.42 1011.77 1011.50 1011.56 1011.57 1012.34 1012.53 1013.00 1013.60 1014.10 1014.51 1014.89 1015.55 1016.20 1017.04 1017.73 1018.53 1019.20 1019.66 1020.61 1021.65 1022.23 1022.74 1023.72 1024.67 1025.83 1026.92 1027.99 1029.01 1029.93 1030.65 1031.13 1031.50 1031.69 1031.76 1031.80 1031.92 1031.79
1011.76 1011.47 1011.16 1011.56 1011.46 1011.28 1011.41 1011.74 1011.72 1011.94 1012.08 1012.48 1012.95 1013.35 1013.72 1014.05 1014.64 1015.16 1015.72 1016.43 1017.32 1018.03 1018.65 1019.33 1020.13 1020.85 1021.71 1022.34 1022.96 1023.63 1024.78 1025.80 1026.96 1027.90 1028.92 1029.72 1030.25 1030.55 1030.96 1031.07 1031.14 1031.22 1031.12 1030.92
1011.10 1011.36 1011.52 1011.72 1011.67 1011.49 1011.39 1011.40 1011.71 1012.23 1012.76 1013.07 1013.41 1013.50 1013.70 1014.19 1014.86 1015.45 1015.98 1016.55 1017.19 1017.92 1018.70 1019.40 1019.87 1020.56 1021.08 1022.12 1023.07 1023.97 1024.80 1025.78 1026.83 1027.73 1028.54 1029.12 1029.67 1030.11 1030.24 1030.41 1030.28 1030.38 1030.30 1030.29
1010.61 1010.89 1011.11 1010.66 1010.48 1010.51 1010.51 1010.42 1011.10 1012.22 1012.72 1013.10 1013.45 1013.83 1014.12 1014.51 1015.00 1015.51 1016.02 1016.45 1017.06 1017.85 1018.60 1019.41 1019.85 1020.36 1021.00 1022.04 1023.02 1024.08 1024.93 1025.64 1026.46 1027.43 1028.14 1028.61 1029.01 1029.47 1029.70 1029.73 1029.75 1029.77 1029.67 1029.36
Wind_Speed
4 9 15 19 19 3 3 5 9 3 3 5 12 12 12 8 6 6 5 5 5 5 4 5 5 6 7 8 9 9 9 8 7 7 8 8 9 10 10 11 15 14 13 11
5 16 15 2 10 9 6 9 12 5 4 4 10 13 7 10 6 6 7 6 7 7 6 6 6 6 8 9 9 9 10 9 8 7 8 8 9 10 10 10 13 14 14 14
14 2 11 8 8 11 13 14 11 9 2 4 6 14 13 5 5 5 5 6 6 7 8 7 8 8 8 9 9 10 11 12 12 14 12 11 11 10 10 10 10 12 14 14
12 5 8 11 12 12 14 12 9 8 5 10 3 8 4 7 8 9 10 10 10 9 7 7 8 9 9 9 8 9 10 12 10 10 10 13 11 11 9 9 9 10 13 14
6 10 10 10 8 10 5 5 9 6 11 5 8 8 3 5 11 13 15 13 12 10 10 10 8 8 8 8 9 10 12 13 12 13 13 12 13 10 9 9 10 11 11 13
3 1 5 5 3 5 13 8 5 3 3 9 15 13 7 8 9 16 17 17 16 14 11 9 7 7 8 8 10 11 13 13 12 13 14 14 14 11 9 9 8 8 8 8
6 7 4 4 6 3 5 12 5 6 6 7 3 9 11 7 8 16 24 21 18 15 14 12 11 9 9 10 10 10 13 13 11 13 13 13 14 13 12 10 8 8 7 7
14 8 16 12 13 10 15 15 5 8 6 2 2 8 5 1 4 3 17 19 18 17 15 14 12 10 10 9 10 11 12 13 11 11 13 11 11 8 8 8 8 6 6 6
10 7 4 5 4 12 10 12 2 6 2 2 6 4 5 4 6 9 16 18 20 19 18 17 15 12 11 10 11 12 12 12 11 11 10 10 10 10 9 9 7 6 5 5
6 3 2 3 3 0 6 12 5 4 6 7 5 6 9 11 16 14 18 22 20 18 17 16 14 14 12 12 12 12 12 12 12 10 9 8 9 8 8 7 7 6 5 5
5 3 4 5 13 18 7 8 4 2 4 5 4 5 5 12 16 20 19 21 23 22 20 18 17 15 14 13 13 13 12 13 11 9 9 9 8 7 7 6 5 5 5 5
11 4 6 14 0 3 8 9 12 8 6 4 4 6 4 3 8 14 17 20 21 22 21 19 18 18 16 16 14 13 12 12 11 10 9 8 8 7 6 6 5 4 5 5
13 6 4 3 5 3 10 11 13 6 2 12 8 5 4 3 7 12 13 16 19 21 21 20 19 18 17 17 16 15 13 13 11 11 9 7 7 7 6 6 5 5 5 5
14 8 16 17 11 12 13 18 16 15 11 10 19 12 8 10 12 12 14 16 18 20 21 20 19 19 19 17 17 16 15 13 12 10 9 9 8 7 6 5 5 5 4 5
11 10 18 24 9 7 12 21 22 25 25 18 19 21 15 16 17 17 17 15 18 20 21 22 21 19 18 17 16 15 14 13 12 11 10 9 7 6 6 5 4 3 3 4
4 9 16 23 15 9 6 14 24 25 24 23 17 17 4 12 8 10 15 16 18 20 22 22 20 19 18 17 15 13 13 12 11 11 10 9 8 6 5 4 3 1 2 4
6 7 7 19 10 7 6 21 17 16 18 20 15 18 6 7 12 13 14 16 17 18 19 19 21 19 17 17 15 16 14 12 11 11 9 8 7 6 4 3 1 1 3 4
9 7 4 3 4 9 3 3 13 18 7 10 5 3 5 6 6 1 5 12 12 11 13 14 13 15 16 16 15 12 11 12 11 10 9 8 7 5 4 3 1 2 3 4
1 5 3 5 7 5 2 6 9 9 10 9 15 5 4 3 1 4 8 6 7 9 8 11 14 15 14 14 14 12 11 12 11 11 10 9 7 6 4 2 2 2 3 5
2 4 5 4 5 10 3 2 2 3 6 10 14 11 10 9 5 7 7 6 5 7 9 11 11 12 13 12 12 13 11 12 12 12 11 9 7 6 4 3 3 2 4 5
6 3 10 6 5 4 4 5 4 7 4 4 8 6 10 7 3 3 7 7 7 7 9 10 11 11 11 12 12 12 11 12 10 10 10 9 7 6 4 4 3 3 4 4
9 9 5 3 4 8 6 5 8 3 2 5 5 7 10 4 6 5 8 8 8 8 9 9 9 9 10 11 12 11 12 10 11 11 9 8 7 5 5 4 3 3 3 4
5 4 4 7 4 1 10 2 2 1 5 5 5 6 9 10 9 9 8 8 8 9 8 6 9 10 8 9 9 11 10 12 11 9 8 7 6 5 5 4 4 3 3 4
5 2 2 2 2 2 10 3 2 4 2 3 1 7 11 11 10 7 5 6 7 8 9 7 8 9 9 8 7 5 11 11 10 9 9 7 6 6 5 4 4 4 4 3
2 8 5 2 4 3 4 9 5 5 2 3 3 6 12 8 6 6 7 7 8 9 6 9 11 10 10 10 9 8 10 11 10 8 8 8 6 6 4 5 4 5 5 5
7 7 5 4 7 3 4 11 11 9 8 7 6 4 3 7 8 7 6 7 7 8 7 8 9 7 8 10 10 10 10 11 11 10 8 7 6 5 4 4 4 9 10 11
Wind_Direction
157 205 217 208 213 232 194 215 228 198 167 237 239 252 200 187 194 197 189 162 130 94 74 64 60 59 76 64 67 64 76 73 93 90 88 77 83 79 73 68 65 64 62 57
166 228 227 210 200 204 217 240 238 272 205 244 254 250 188 196 207 206 175 165 143 132 113 91 85 85 83 87 86 88 86 89 90 93 95 90 93 82 78 72 64 60 59 59
210 172 184 162 172 198 225 227 234 261 153 232 276 257 225 172 166 161 164 150 151 141 127 108 98 93 94 83 83 89 92 94 95 102 105 103 100 93 80 67 63 57 60 59
240 169 164 188 208 198 231 214 230 224 233 259 223 282 207 193 186 193 180 184 169 158 142 125 118 104 95 90 93 92 97 93 90 93 98 102 99 96 85 80 75 65 59 57
194 176 178 192 206 186 272 149 204 210 230 265 199 260 196 172 213 200 191 189 180 172 160 149 130 111 98 101 96 96 94 91 94 96 97 98 100 101 102 94 82 71 60 54
266 40 198 199 104 193 135 107 84 101 191 249 229 221 187 202 214 183 189 191 181 175 169 153 132 134 117 114 109 106 100 91 91 94 96 100 104 103 96 87 79 65 56 54
202 211 172 172 116 99 180 165 171 211 208 247 133 208 253 207 182 192 184 186 180 175 175 168 164 157 144 130 120 113 108 101 101 100 98 98 98 98 94 90 77 75 62 49
200 225 182 187 207 177 190 190 197 203 202 177 117 229 239 86 146 198 187 181 175 180 182 177 172 166 157 144 132 128 122 118 115 110 106 105 102 100 94 84 88 72 61 50
193 241 184 184 147 164 180 212 127 106 67 247 207 227 230 181 189 169 178 180 185 186 184 181 177 176 167 161 155 148 138 131 131 125 121 115 109 103 100 95 84 86 70 60
195 193 210 116 126 98 213 148 170 223 206 228 209 245 233 206 204 187 185 190 189 188 188 185 184 180 175 173 166 158 150 145 141 137 129 121 115 112 109 103 97 86 76 53
152 227 130 145 210 190 159 188 212 203 219 222 256 220 208 212 197 191 196 193 188 188 188 188 187 183 184 180 172 166 162 148 151 147 143 140 137 132 122 115 104 85 70 38
194 131 175 203 77 307 246 216 193 199 182 247 301 250 151 176 192 195 194 195 192 191 190 192 188 184 185 184 178 173 166 162 164 162 162 156 147 145 142 128 111 88 60 34
172 188 190 229 204 166 218 202 219 242 69 204 200 236 159 161 175 201 200 191 193 193 190 193 192 191 188 187 182 179 175 176 169 171 169 159 164 159 149 123 90 59 31 19
193 162 205 219 225 158 204 204 201 196 217 196 228 231 197 200 205 192 198 195 193 196 194 193 195 195 192 189 184 183 183 179 172 173 172 170 175 155 119 98 77 50 23 2
175 229 224 244 259 232 211 201 195 208 217 209 233 226 210 198 199 204 202 191 187 194 196 199 197 194 189 187 186 186 185 180 175 174 176 168 158 137 124 113 94 64 25 352
203 226 226 245 225 221 231 212 210 215 219 231 243 248 191 193 189 195 202 188 195 199 201 202 197 190 188 185 184 180 184 180 176 175 167 163 157 145 136 126 101 63 359 337
183 209 187 236 209 179 237 221 200 211 217 219 217 235 133 179 206 207 203 195 200 202 203 200 198 191 183 180 179 186 182 163 169 163 154 163 156 151 140 126 120 339 322 319
175 189 188 129 155 213 228 335 209 210 191 216 259 174 180 209 207 203 164 192 204 205 202 200 191 187 183 181 182 171 158 161 160 151 159 161 161 151 146 156 231 292 310 308
345 177 166 187 208 343 255 200 170 172 226 190 220 199 173 105 90 236 206 203 213 205 191 189 188 186 175 170 161 153 154 158 156 165 172 170 163 153 154 182 241 285 291 301
187 289 224 156 211 214 154 211 178 130 257 198 195 200 160 147 205 238 170 171 165 172 169 166 166 159 161 158 148 147 155 162 176 176 173 162 153 151 164 197 234 247 283 292
159 181 223 200 214 261 253 164 167 158 253 147 185 145 150 189 212 104 144 156 164 158 159 150 159 160 150 142 145 156 161 184 168 157 150 151 151 157 174 193 222 256 282 292
176 171 185 188 217 253 139 92 188 167 41 137 160 173 185 152 149 156 161 155 154 152 149 156 143 146 149 154 156 163 181 154 151 151 152 153 156 177 173 194 218 243 264 279
219 204 187 204 189 156 193 71 213 91 135 189 171 174 167 163 174 165 167 166 169 167 158 160 157 149 164 169 175 170 162 154 149 148 152 162 168 180 182 202 217 248 237 265
235 187 202 172 174 211 200 224 240 195 187 176 154 158 169 177 177 175 156 162 170 173 181 168 154 168 177 181 178 159 151 152 147 156 167 170 185 185 191 212 216 229 241 259
123 147 139 285 257 289 232 230 223 199 167 145 143 172 190 176 172 167 184 185 189 186 172 176 185 190 191 174 175 153 153 148 159 166 173 181 189 196 199 223 227 230 236 230
179 157 183 212 199 178 200 213 204 191 205 202 181 170 177 175 185 174 199 198 184 187 171 186 201 194 179 175 172 162 158 162 160 173 180 185 188 191 207 220 252 241 256 265